Weather History for KCLE - March, 2014

Change the Weather History Date:

Monday, March 31, 2014

  Actual Average Record
Temperature  
Mean Temperature 42 °F 44 °F  
Max Temperature 59 °F 53 °F 80 °F (1998)
Min Temperature 25 °F 35 °F 11 °F (1923)
Degree Days  
Heating Degree Days 23 21  
Month to date heating degree days 1009 824  
Since 1 July heating degree days 5690 5043  
Cooling Degree Days 0 0  
Month to date cooling degree days 0 1  
Year to date cooling degree days 0 1  
Moisture  
Dew Point 22 °F    
Average Humidity 52    
Maximum Humidity 81    
Minimum Humidity 22    
Precipitation  
Precipitation 0.00 in 0.11 in - ()
Month to date precipitation 2.20 2.93  
Year to date precipitation 7.23 7.99  
Snow  
Snow 0.00 in 0.30 in - ()
Month to date snowfall 15.1 12.6  
Since 1 July snowfall 84.8 64.8  
Snow Depth 2.00 in    
Sea Level Pressure  
Sea Level Pressure 30.20 in    
Wind  
Wind Speed 3 mph (East)    
Max Wind Speed 10 mph    
Max Gust Speed 14 mph    
Visibility 10 miles    
Events      
T = Trace of Precipitation, MM = Missing Value Source: NWS Daily Summary

Daily Weather History Graph

Daily Weather History Graph

Search for Another Location

Airport or City:

Trip Planner

Search our weather history database for the weather conditions in past years. The results will help you decide how hot, cold, wet, or windy it might be!

Date:

Astronomy

Mar. 31, 2014 Rise Set
Actual Time 7:12 AM EDT 7:51 PM EDT
Civil Twilight 6:44 AM EDT 8:19 PM EDT
Nautical Twilight 6:11 AM EDT 8:52 PM EDT
Astronomical Twilight 5:37 AM EDT 9:26 PM EDT
Moon 7:34 AM EDT (3/31) 9:09 PM EDT (3/31)
Length of Visible Light 13h 35m
Length of Day
12h 39m
New Moon, 1% of the Moon is Illuminated
Mar 31
New Moon
Apr 7
First Quarter
Apr 15
Full
Apr 22
Last Quarter
Apr 29
New

Hourly Weather History & Observations

Time (EDT) Temp. Windchill Dew Point Humidity Pressure Visibility Wind Dir Wind Speed Gust Speed Precip Events Conditions
12:51 AM 30.0 °F - 23.0 °F 75% 30.20 in 10.0 mi Calm Calm - N/A   Clear
1:51 AM 27.0 °F 21.6 °F 21.9 °F 81% 30.21 in 10.0 mi WSW 4.6 mph - N/A   Clear
2:51 AM 28.9 °F - 21.9 °F 75% 30.19 in 10.0 mi Calm Calm - N/A   Clear
3:51 AM 28.9 °F - 23.0 °F 78% 30.20 in 10.0 mi Calm Calm - N/A   Partly Cloudy
4:51 AM 28.0 °F 24.2 °F 21.0 °F 75% 30.20 in 10.0 mi SSE 3.5 mph - N/A   Partly Cloudy
5:51 AM 27.0 °F - 21.0 °F 78% 30.21 in 10.0 mi Calm Calm - N/A   Scattered Clouds
6:51 AM 27.0 °F 20.5 °F 21.0 °F 78% 30.23 in 10.0 mi SSE 5.8 mph - N/A   Partly Cloudy
7:51 AM 26.1 °F - 21.0 °F 81% 30.25 in 10.0 mi Calm Calm - N/A   Partly Cloudy
8:51 AM 33.1 °F 30.0 °F 25.0 °F 72% 30.27 in 10.0 mi SSE 3.5 mph - N/A   Clear
9:51 AM 39.9 °F - 24.1 °F 53% 30.26 in 10.0 mi Calm Calm - N/A   Clear
10:51 AM 46.0 °F - 19.9 °F 35% 30.27 in 10.0 mi Calm Calm - N/A   Clear
11:51 AM 46.9 °F - 19.0 °F 33% 30.26 in 10.0 mi Calm Calm - N/A   Partly Cloudy
12:51 PM 52.0 °F - 21.0 °F 30% 30.25 in 10.0 mi Calm Calm - N/A   Partly Cloudy
1:51 PM 53.1 °F - 19.0 °F 26% 30.24 in 10.0 mi Calm Calm - N/A   Scattered Clouds
2:51 PM 55.9 °F - 17.1 °F 22% 30.22 in 10.0 mi Calm Calm - N/A   Scattered Clouds
3:51 PM 59.0 °F - 21.0 °F 23% 30.19 in 10.0 mi Calm Calm - N/A   Scattered Clouds
4:51 PM 57.9 °F - 25.0 °F 28% 30.19 in 10.0 mi NNE 5.8 mph - N/A   Scattered Clouds
5:51 PM 55.0 °F - 24.1 °F 30% 30.16 in 10.0 mi NE 8.1 mph - N/A   Mostly Cloudy
6:51 PM 52.0 °F - 21.9 °F 31% 30.15 in 10.0 mi NNE 4.6 mph - N/A   Mostly Cloudy
7:51 PM 48.9 °F - 21.9 °F 35% 30.14 in 10.0 mi NNE 5.8 mph - N/A   Mostly Cloudy
8:51 PM 46.0 °F 43.9 °F 23.0 °F 40% 30.13 in 10.0 mi NE 4.6 mph - N/A   Mostly Cloudy
9:51 PM 46.9 °F - 25.0 °F 42% 30.12 in 10.0 mi Calm Calm - N/A   Mostly Cloudy
10:51 PM 44.1 °F 40.8 °F 27.0 °F 51% 30.11 in 10.0 mi SE 5.8 mph - N/A   Mostly Cloudy
11:51 PM 46.0 °F 42.5 °F 26.1 °F 46% 30.08 in 10.0 mi SE 6.9 mph - N/A   Overcast